MONITOR-3 (RS58S)

Last updated on Fri Dec 19 2025 00:03:11 GMT+0000 (Coordinated Universal Time)

1 57180U 23091Q 25352.59193067 .00009198 00000+0 38707-3 0 9997 2 57180 97.5366 50.0048 0013275 21.2465 338.9320 15.23529654136756
UTC large
Height (km)
Speed (km/s)
/
Latitude / Longitude
Inclination (degrees)
Orbital Period (minutes)
Azimuth
Elevation
Range (km)
Doppler Factor

Next 0 passes for location: London (51.5072 / 0.1276)

Sorry there are no passes over London.